CZ-6A DEB

Satellite information

Favourite Embed

Satellite Type and Status

DEBRISIN ORBIT

Key statistics

Satellite CZ-6A DEB at a glance.

Uptime

1129

Days in orbit

Revolutions

≈ 14.2

Per day

Orbit

SSO

Sun Synchronous Orbit

Inclination

98.8

Latest

Satellite identification and parameters

Extended collection of information and parameters for CZ-6A DEB.

Object identification

Identified? True

Debris? True

Object name: CZ-6A DEB

International designator: 2022-151SX

Object number (NORAD): 54958

Object ID (CCSDS): 54958

Country: PEOPLES REPUBLIC OF CHINA (PRC)

Current information (Y/N): Y

RCS size: SMALL

Orbital parameters

Period: 101.259 minutes

Inclination: 98.8199 deg

SMA: 7196.42 km

Apoapsis: 854.498 km

Periapsis: 782.072 km

RAAN: 350.646 deg

Eccentricy: 0.0050321

Argument of periapsis: 124.6254 deg

Mean anomaly: 235.9683 deg

Mean motion: 14.22093089 rev/day

Mean motion (dot): 0.00007438 rev/day2

B* drag term: 0.0033341 1/REarth

Two-line elements (TLE)

Creation date: Dec. 12, 2025, 7:16 a.m.

Reference frame: TEME

Reference center: EARTH

Epoch: Dec. 11, 2025, 10:59 p.m. UTC

TLE line 0: 0 CZ-6A DEB

TLE line 1: 1 54958U 22151SX 25345.95769782 .00007438 00000-0 33341-2 0 9992

TLE line 2: 2 54958 98.8199 350.6460 0050321 124.6254 235.9683 14.22093089158789

Live tracking on map

Real-time ground track for satellite CZ-6A DEB.

In-orbit conjunctions

A list of the most updated potential collisions computed for object CZ-6A DEB.

Target Orbit TCA Probability of collision Miss distance Type
SL-3 R/B LEO 2025-11-16 04:25:03 0.0001724648 594.0 (m) ROCKET BODY
EXPLORER 30 LEO 2025-10-07 06:42:18 0.0002707325 620.0 (m) PAYLOAD

Associated space launch

Chinese satellite reported for atmospheric/ocean/environmental/spatial parameter research purposes, details TBD.

CZ-6A DEB was lifted into orbit during the mission ‘Long March 6A | Yunhai 3’, on board a Long March 6A space rocket.

The launch took place on Nov. 11, 2022, 10:52 p.m. from Launch Complex 9A.

For more information about the launch, click the button.

Launch to space Long March 6A | Yunhai 3
Long March 6A | Yunhai 3

Agency: N/A

Status: Launch Successful

Launch date: Nov. 11, 2022, 10:52 p.m. UTC

Rocket: Long March 6A

Launch pad: Launch Complex 9A

Location: Taiyuan Satellite Launch Center, People's Republic of China

...

Latest news about this satellite

There are no fresh news available about this satellite. Check back as we update our databases every day.


Newsletter sign-up

Weekly statistics, charts and insights to help you stay on top of the space industry.